RH
35 35 35 37 39 40 41 41 41 40 41 41 41 41 42 43 43 45 46 46 45 43 41 38 35 33 31 30 28 27 24 23 21 21 20 20 19 18 16 14 11 9 6 5 3 2 2 2 1 1 1 1
35 36 37 39 41 42 42 41 41 41 42 42 43 45 46 47 47 48 47 46 44 41 38 34 31 29 27 25 24 23 21 21 20 20 19 17 15 12 9 7 5 3 2 2 1 1 1 1 1 1 1 1
36 38 40 42 43 42 42 41 42 43 44 46 47 47 48 48 48 47 46 43 41 38 35 31 28 25 24 23 22 22 21 21 19 17 14 11 9 6 4 3 2 1 1 1 1 1 1 1 1 1 1 1
38 41 43 43 43 43 42 43 44 46 47 48 47 48 48 47 46 45 43 42 39 36 31 28 25 24 23 22 22 21 20 18 15 12 9 6 4 2 2 1 1 1 1 1 1 1 1 1 1 1 1 1
41 43 44 44 44 43 43 45 47 48 48 47 47 47 47 46 45 44 42 40 36 32 28 25 24 23 22 22 21 19 17 13 9 6 4 2 1 1 1 1 1 1 1 1 1 1 1 1 1 1 1 0
44 45 45 44 45 44 45 46 47 47 46 46 46 47 47 46 45 43 40 37 32 29 26 24 23 23 22 21 18 15 11 7 5 3 2 1 1 1 1 1 1 1 1 1 1 1 1 1 1 1 1 0
46 46 45 45 45 45 46 46 45 45 45 46 47 47 47 45 43 40 36 32 29 27 25 24 23 23 21 18 14 9 6 3 2 1 1 1 1 1 1 1 1 1 1 1 1 1 1 0 1 0 0 1
47 46 45 45 45 44 45 45 44 44 45 46 47 47 45 43 40 36 32 30 28 26 26 25 24 21 17 12 7 4 2 1 1 1 1 1 1 1 1 1 1 1 1 1 1 0 1 0 1 1 0 1
46 45 45 45 44 43 43 43 43 44 45 46 46 45 43 41 37 33 31 29 28 27 27 25 21 16 10 5 2 1 1 1 1 1 1 1 1 1 1 1 1 1 1 1 1 0 1 0 1 1 0 1
45 45 45 45 43 42 42 42 42 43 45 46 46 46 43 39 35 32 30 29 28 28 26 21 15 9 4 2 1 1 1 1 1 1 1 1 1 1 1 1 1 1 1 1 1 0 1 1 1 1 1 1
45 45 45 44 43 42 42 42 42 44 45 46 47 46 43 39 35 32 31 30 29 26 21 15 9 5 2 1 1 1 1 1 1 1 1 1 1 1 1 1 1 1 1 0 1 1 1 1 1 1 1 1
44 44 43 43 43 42 43 42 43 44 46 47 47 46 43 39 35 33 32 30 27 22 16 10 5 3 1 1 1 1 1 1 1 1 1 1 1 1 1 1 1 1 1 1 1 1 1 1 1 1 1 1
44 43 43 43 43 43 43 43 43 45 46 48 48 47 44 39 36 33 32 28 23 17 10 5 3 2 1 1 1 1 1 1 1 1 1 1 1 1 1 1 1 1 1 1 1 1 1 1 1 1 1 1
44 43 43 43 44 44 43 43 43 44 46 48 49 48 45 40 36 34 31 26 20 12 6 3 2 1 1 1 1 1 1 1 1 1 1 1 1 1 1 1 1 1 1 1 1 1 1 1 1 1 1 1
45 44 43 43 43 44 44 44 43 44 46 48 50 49 45 40 36 33 29 23 15 8 4 2 1 1 1 1 1 1 1 1 1 1 1 0 1 1 1 1 1 1 1 1 1 1 1 1 1 1 1 1
46 44 42 42 43 44 45 44 44 44 46 48 50 48 45 40 36 32 28 20 11 5 2 1 1 1 1 1 1 1 1 1 1 1 1 1 1 1 1 1 1 1 1 1 1 1 1 1 1 1 1 1
45 42 41 41 42 45 45 44 44 44 45 47 48 48 46 41 36 31 25 16 7 3 2 1 1 1 1 1 1 1 1 1 1 1 1 1 1 1 1 1 1 1 1 1 1 1 1 1 2 2 2 2
43 41 40 40 42 45 45 45 43 43 44 45 47 48 46 41 35 30 21 11 5 2 1 1 1 1 1 1 1 1 1 1 1 1 1 1 1 1 1 1 1 1 1 1 1 1 1 2 2 2 2 2
41 40 39 40 42 45 45 45 43 43 44 44 47 49 46 40 35 27 16 7 3 1 1 1 1 1 1 1 1 1 1 1 1 1 1 1 1 1 1 1 1 1 1 1 1 2 2 2 2 2 2 2
39 39 38 40 42 45 46 45 44 44 44 44 47 49 46 40 33 23 11 4 1 1 1 1 1 1 1 1 1 1 1 1 1 1 1 1 1 1 1 1 1 1 1 2 2 2 2 2 2 2 3 2
38 38 39 40 42 45 46 46 46 45 44 44 47 49 47 40 31 18 8 3 1 1 1 1 1 1 1 1 1 1 1 1 1 1 1 1 1 1 1 1 1 1 2 2 2 2 2 3 3 2 3 3
39 39 40 41 43 45 47 47 46 45 44 45 47 50 47 39 28 14 6 2 1 1 1 1 1 1 1 1 1 1 1 1 1 1 1 1 1 1 1 1 2 2 2 2 2 3 2 3 3 3 3 3
39 40 41 42 44 46 47 47 46 45 45 44 47 50 47 38 24 11 4 1 1 1 1 1 1 1 1 1 1 1 1 1 1 1 1 1 1 1 2 2 2 2 2 2 2 3 3 3 3 3 3 4
40 40 41 42 44 46 47 47 46 46 45 45 47 50 47 36 20 8 2 1 1 1 1 1 1 1 1 1 1 1 1 1 1 1 1 1 2 2 2 2 2 2 2 3 3 3 3 3 3 3 4 4
40 41 42 43 44 46 47 47 47 47 46 45 47 51 48 34 18 6 2 1 1 1 1 1 1 1 1 1 1 1 1 1 1 1 2 2 2 2 2 2 2 3 3 3 3 3 3 3 3 4 4 5
41 42 43 43 45 46 47 48 48 48 47 45 47 51 47 32 15 5 1 1 1 1 1 1 1 1 1 1 1 1 1 1 2 2 2 2 2 2 2 3 3 3 3 3 3 3 3 4 4 4 5 6
42 42 43 44 45 46 47 48 49 49 47 45 47 52 47 29 12 3 1 1 1 1 1 1 1 1 1 1 1 1 1 2 2 2 2 2 2 2 2 3 3 3 4 4 4 4 5 5 6 6 8 8
42 43 44 44 45 46 47 49 50 50 48 46 47 52 46 27 9 2 1 1 1 1 1 1 1 1 1 1 1 1 1 2 2 2 2 2 3 3 3 3 4 4 4 5 5 5 6 7 8 9 13 13
43 44 44 44 45 46 48 50 51 51 49 46 47 52 45 24 7 1 1 1 1 1 1 1 1 1 1 1 1 1 2 2 2 2 2 3 3 3 4 4 5 5 5 6 6 7 8 8 10 11 14 15
43 44 44 45 46 46 48 50 51 51 49 46 47 52 44 21 5 1 1 1 1 1 1 1 1 1 1 1 2 2 2 2 2 3 3 3 4 4 5 5 6 6 6 7 8 9 9 10 12 13 13 14
43 43 43 44 46 47 49 51 52 52 50 47 48 52 42 19 3 1 1 1 1 1 1 1 1 1 1 1 2 2 2 2 2 3 3 3 4 5 6 6 7 7 7 8 9 10 11 12 14 14 14 15
Wind_Speed
11 11 11 10 10 11 12 13 14 15 16 17 17 18 19 20 20 20 21 21 22 22 23 24 25 25 26 26 27 27 27 27 27 27 27 27 27 27 27 27 28 29 29 30 30 30 31 31 32 32 33 34
10 10 9 9 10 12 13 14 15 15 16 17 18 19 19 19 20 20 20 21 22 23 24 25 26 26 27 27 27 27 27 27 27 26 25 25 26 26 27 27 28 28 29 29 30 30 31 32 32 33 34 35
9 8 9 10 11 12 13 14 15 16 17 18 19 19 19 19 20 20 21 22 23 24 25 26 26 27 27 27 27 27 26 26 26 25 25 26 27 27 27 28 28 28 29 29 30 31 32 33 34 35 35 36
8 8 9 10 11 12 13 14 15 17 18 18 19 19 20 20 21 22 23 24 25 25 26 26 27 27 27 27 26 26 26 26 26 26 27 27 27 27 28 28 28 29 30 31 32 32 33 34 35 35 36 36
6 7 9 10 11 12 13 15 16 17 18 18 19 20 21 22 23 23 24 25 25 25 26 26 27 27 27 26 26 26 26 27 27 27 27 27 27 28 28 28 29 30 31 32 32 33 33 33 34 35 36 36
6 7 8 10 11 12 14 16 17 18 19 19 20 21 22 23 23 24 25 25 25 26 26 27 27 27 27 27 26 27 27 27 27 27 27 27 27 28 28 29 30 30 31 31 32 32 33 34 34 35 36 37
6 7 9 10 12 13 15 17 18 19 20 21 22 22 23 24 24 25 25 26 26 27 27 27 27 27 27 27 26 26 26 26 26 26 27 27 28 28 29 29 29 30 30 31 32 33 34 34 35 36 37 38
6 8 9 11 13 15 16 18 19 20 21 22 23 23 24 25 25 26 26 27 27 28 28 28 27 27 26 26 26 26 26 26 26 27 27 28 28 29 29 29 30 30 31 32 33 34 34 35 36 37 37 38
7 8 10 12 14 16 17 19 20 21 22 23 24 25 25 26 26 27 27 28 28 28 27 27 26 26 26 25 25 26 26 27 27 28 29 29 29 29 30 30 31 32 32 33 34 34 35 36 37 38 39 40
7 8 10 12 14 16 18 19 21 22 23 24 25 26 26 27 27 28 28 29 28 28 27 26 26 25 25 25 26 26 27 28 29 29 30 30 30 30 31 31 32 33 33 34 35 36 37 38 38 39 40 40
8 9 11 13 15 16 18 20 22 23 24 25 26 27 27 28 28 29 29 29 29 28 27 26 26 26 26 26 26 27 28 29 30 30 30 31 31 31 31 32 33 34 35 36 36 37 38 38 38 38 38 38
9 11 12 13 15 16 18 20 22 24 25 25 26 27 28 29 29 29 30 29 29 28 27 27 26 26 26 27 28 29 29 30 30 30 30 30 30 31 32 33 34 35 36 37 37 37 38 38 38 38 38 38
10 12 13 14 15 17 18 21 23 24 25 26 27 28 29 29 30 30 30 29 29 28 28 27 27 27 28 28 29 30 30 30 30 30 30 30 31 32 33 34 35 36 36 36 37 38 38 38 39 39 38 37
11 12 13 14 16 17 19 21 24 25 26 27 28 29 30 30 30 31 30 30 29 28 28 28 28 28 29 30 30 30 30 30 29 29 30 31 32 33 34 34 35 35 35 36 37 38 38 38 38 37 36 36
12 13 13 15 16 18 19 22 23 25 26 27 29 30 30 30 31 31 30 30 29 29 29 29 29 29 30 30 30 30 30 29 30 30 31 32 32 33 33 34 34 35 36 37 37 38 38 38 37 36 36 36
12 13 14 15 17 18 19 22 24 25 27 28 30 30 31 31 31 31 31 30 29 29 29 29 29 30 30 30 30 31 31 31 31 32 32 32 32 32 33 33 35 36 37 37 38 38 38 37 36 37 38 38
13 14 15 16 17 18 19 22 24 26 28 29 30 31 32 32 32 31 31 30 29 29 29 29 30 30 30 30 31 31 32 32 32 32 31 31 31 32 33 34 35 36 37 37 38 38 37 37 37 38 38 38
13 14 15 16 17 18 20 22 25 27 28 30 31 32 33 33 32 32 30 29 29 29 29 30 30 30 30 31 31 31 31 31 31 30 30 30 31 32 34 35 36 36 37 38 38 37 37 37 38 38 38 38
14 15 15 16 17 18 20 22 24 27 29 30 32 33 33 33 32 31 30 29 29 29 30 30 30 30 31 31 31 31 30 29 29 29 29 30 32 33 34 35 36 37 37 37 37 37 37 38 38 38 37 37
14 15 15 16 17 18 19 22 24 27 29 31 33 33 34 33 32 31 30 29 29 29 30 30 30 30 31 31 30 29 28 27 27 28 29 30 31 32 34 35 36 36 36 36 36 37 37 37 37 36 36 36
14 14 15 16 16 17 19 22 24 27 29 31 33 34 34 34 32 31 30 29 29 30 30 30 30 30 30 30 29 27 26 26 27 28 29 30 31 32 34 35 35 35 35 35 36 36 36 35 35 36 36 36
13 14 15 15 16 18 20 22 25 27 30 32 34 35 34 34 32 31 30 29 30 30 30 29 29 29 29 28 27 25 25 26 27 28 29 30 31 32 33 34 34 34 34 34 34 35 35 34 34 35 35 35
13 14 14 15 16 18 20 22 25 28 30 33 34 35 35 33 32 31 30 29 29 29 29 28 28 28 27 26 25 24 25 26 27 28 29 29 30 31 32 32 33 34 34 33 34 34 35 34 34 34 34 35
12 13 14 15 17 18 20 23 25 28 30 33 34 35 34 33 32 30 30 29 29 28 28 27 27 26 25 24 23 24 25 26 27 27 27 28 29 30 31 31 32 33 33 33 34 34 34 33 34 33 33 34
12 13 14 15 17 19 21 23 25 28 30 33 35 35 35 33 31 30 29 29 28 27 27 26 25 24 23 22 22 23 24 25 26 26 26 27 28 28 29 29 30 31 31 32 34 33 33 33 33 33 33 35
11 12 14 16 17 19 21 23 25 28 30 33 35 35 34 32 31 30 29 28 27 26 25 24 23 22 21 22 22 23 24 24 24 24 25 25 26 27 27 28 28 28 29 30 31 31 32 33 33 35 35 37
11 12 14 16 18 19 21 23 25 27 30 33 35 35 33 31 30 29 28 28 26 26 24 22 21 20 21 21 22 23 24 24 23 23 24 24 25 26 26 27 26 27 27 28 27 27 29 30 31 33 34 35
10 12 14 16 18 19 21 23 25 27 30 32 34 34 33 31 29 28 27 26 25 24 23 21 20 20 20 21 22 22 23 22 22 22 23 23 24 25 25 25 25 26 27 26 26 27 27 27 28 30 30 32
10 12 14 16 18 20 21 22 24 27 30 32 34 34 32 30 28 27 26 25 24 23 21 20 19 19 19 20 21 22 21 20 20 21 22 22 23 23 24 25 25 26 26 26 26 27 28 29 29 29 29 30
10 12 14 17 19 20 21 22 24 27 29 32 34 33 31 29 27 26 25 23 22 21 20 18 17 18 19 20 20 20 20 19 19 20 21 22 22 23 24 24 25 25 25 26 27 28 29 30 30 29 28 29
11 13 15 17 19 20 21 22 24 26 29 32 33 33 31 28 27 25 23 22 21 20 18 16 16 17 18 19 19 19 19 19 19 20 21 21 22 22 23 23 24 24 25 26 27 28 29 29 29 30 30 30
Wind_Direction
312 322 331 337 341 343 344 344 344 344 344 345 346 347 347 345 342 340 337 335 334 334 333 331 330 329 328 327 327 326 326 326 327 327 327 325 325 324 324 324 324 324 324 323 323 322 320 319 318 316 315 313
322 331 338 343 344 346 347 347 346 347 348 348 349 348 345 341 338 336 334 333 332 332 332 331 330 329 329 328 327 327 327 327 327 327 326 326 325 325 325 325 325 324 324 323 322 320 320 319 318 317 316 314
329 338 343 347 347 347 348 348 348 350 351 350 349 346 341 338 335 333 333 333 333 333 332 331 331 330 329 328 327 328 327 327 328 328 328 328 327 327 327 326 325 324 323 323 322 322 322 321 320 319 317 316
334 342 347 348 347 348 348 349 352 353 351 348 346 342 338 336 334 334 335 335 334 333 332 331 330 329 328 328 328 329 329 330 330 330 330 329 329 328 327 326 325 325 325 325 325 324 323 322 320 320 319 317
337 345 347 347 347 347 349 352 354 353 349 346 343 340 338 337 337 336 336 335 333 332 331 331 330 330 330 330 330 331 331 331 330 330 329 329 329 328 327 326 327 327 327 326 325 324 323 322 322 321 320 319
342 346 347 347 347 349 353 355 353 350 347 344 343 341 340 339 338 337 335 334 334 333 333 332 331 331 331 332 331 332 331 330 330 330 330 329 328 328 328 328 328 327 326 325 325 325 325 325 324 324 323 322
346 346 347 348 348 352 355 354 352 349 346 344 343 342 341 341 340 338 336 336 336 335 334 333 333 333 332 332 331 331 330 330 330 330 330 329 329 329 330 329 328 327 327 328 329 329 329 329 328 327 327 326
342 341 345 348 350 353 354 353 351 348 345 345 343 342 342 342 341 339 339 339 338 337 336 335 334 333 332 332 332 332 332 332 332 331 332 331 332 331 330 329 330 331 332 332 332 332 332 332 331 331 331 330
331 337 343 346 348 351 352 351 348 346 344 344 343 343 343 342 341 341 341 340 339 338 337 335 334 332 332 333 333 334 334 333 334 334 334 333 332 332 332 333 334 335 335 335 335 335 335 336 336 336 335 334
324 334 341 343 345 347 348 347 345 344 344 344 344 345 344 343 342 342 342 341 340 338 337 335 334 334 334 335 335 335 336 335 336 335 334 333 334 334 335 336 336 337 338 338 339 339 340 340 340 339 337 335
321 331 336 338 340 341 343 343 343 343 344 344 345 344 343 343 343 343 342 341 340 338 336 335 335 335 335 336 337 337 338 337 336 335 335 335 336 336 337 338 339 340 341 342 343 343 343 342 341 339 337 335
316 324 329 332 334 337 340 342 343 343 343 344 344 344 343 343 343 343 342 341 339 338 337 337 337 337 337 338 339 339 338 337 336 336 336 336 337 338 340 342 343 343 344 344 344 344 343 342 341 340 339 339
310 316 321 325 330 335 339 341 343 343 343 343 344 344 344 343 343 343 342 340 340 339 339 338 338 339 340 340 340 339 338 337 336 336 336 338 340 343 345 345 344 344 345 345 345 345 345 344 343 343 344 345
302 308 314 321 328 333 338 341 342 343 343 343 344 344 344 344 344 342 341 341 341 341 340 340 340 340 341 340 340 339 337 336 336 337 340 344 347 347 345 344 344 345 346 347 348 348 348 348 349 350 351 351
297 304 312 320 326 332 337 340 341 342 342 343 344 343 344 344 343 342 341 342 342 342 342 342 342 341 341 340 338 337 336 336 338 343 347 349 349 346 344 345 347 348 350 351 352 352 352 354 355 355 355 355
296 304 313 318 324 330 335 338 340 341 343 344 343 343 344 344 342 342 343 343 343 342 343 343 342 341 340 339 338 337 338 340 344 348 350 350 347 345 346 348 351 353 354 355 355 356 358 359 358 358 358 357
299 306 312 317 322 329 333 337 340 341 343 343 343 344 344 343 343 344 344 343 343 344 343 343 341 340 339 338 339 340 342 345 348 350 350 348 347 347 350 353 356 357 357 357 359 0 1 1 1 1 0 358
301 306 311 316 321 326 331 336 339 341 343 343 343 344 344 343 344 344 344 343 344 344 343 342 341 340 340 340 342 344 346 347 348 350 349 347 349 352 355 358 359 359 359 1 2 3 3 4 4 3 1 358
300 304 309 314 319 324 330 334 338 341 342 343 344 344 344 344 344 344 344 344 345 345 343 342 341 341 342 344 345 346 347 348 348 349 349 351 354 357 359 360 0 0 2 4 5 5 5 6 5 3 0 358
297 302 307 313 317 322 329 333 337 340 342 344 345 344 344 344 344 344 344 345 346 345 344 343 342 343 344 346 346 346 347 348 349 349 353 358 360 1 1 2 3 3 6 7 7 7 7 7 5 2 359 357
295 301 306 311 317 322 328 333 338 340 342 344 345 344 344 344 344 343 344 345 346 345 345 344 343 344 345 346 345 346 347 349 351 354 360 3 3 3 4 5 5 7 9 9 8 8 8 7 4 1 359 358
294 300 306 312 317 323 329 334 338 340 343 345 344 344 344 344 343 343 344 345 345 345 345 344 344 345 346 345 345 346 349 353 357 1 4 5 6 7 6 7 8 10 11 10 9 9 8 6 4 2 0 358
294 300 307 314 319 325 330 334 337 340 343 344 344 344 344 343 343 343 344 344 345 345 344 342 343 345 346 345 346 349 354 358 2 5 7 7 9 10 10 10 10 12 13 11 11 11 8 6 5 4 2 0
295 302 310 316 322 327 331 333 336 340 342 343 343 344 343 343 342 343 343 343 344 343 342 341 344 346 345 346 349 354 359 2 5 7 9 10 12 13 13 13 14 15 14 11 12 11 8 6 6 6 4 5
297 307 313 319 324 327 330 332 336 339 341 342 343 343 343 342 342 342 342 342 343 341 340 342 345 346 346 348 353 359 3 6 7 10 12 14 15 17 18 19 19 19 16 13 13 11 8 8 7 6 6 8
302 311 317 321 324 327 328 331 335 338 340 341 343 342 342 341 340 340 340 340 340 339 339 342 345 347 348 351 356 1 6 8 10 13 14 17 19 20 22 24 25 23 20 19 17 12 10 9 7 7 8 8
307 314 319 323 324 326 327 330 334 337 339 341 342 341 340 340 339 339 339 339 338 337 339 343 346 348 350 355 0 5 8 10 11 14 17 20 21 22 25 27 27 25 24 24 21 17 16 14 11 11 10 7
310 317 322 324 324 325 326 330 333 336 339 340 340 340 339 338 338 337 337 337 337 337 339 343 346 348 353 359 4 7 9 11 13 16 20 22 23 25 28 30 28 26 26 23 21 20 20 18 17 16 12 7
309 318 322 325 325 325 326 329 332 335 338 338 339 339 338 337 336 335 335 336 335 335 338 342 346 350 356 2 6 8 9 11 14 18 22 24 26 27 29 30 29 27 25 22 21 21 19 18 18 18 13 8
306 315 321 324 325 326 328 329 331 334 336 337 338 338 337 336 334 333 333 334 333 334 339 343 347 354 360 4 6 8 9 11 15 19 22 24 26 29 30 30 28 26 24 21 20 19 18 17 16 14 11 9
299 310 316 321 325 327 328 328 329 332 334 336 338 337 336 334 332 331 332 331 332 334 339 344 350 356 1 5 7 8 10 11 14 18 21 24 26 28 29 29 27 24 22 21 19 18 17 16 14 10 8 7